• In United Kingdom
  • List of Countries
  • For 7 days
  • Water Temperature
  • Satellite Maps
  • Weather Map
  • Weather Widgets
  • user-avatar
    Login

    Hourly Weather Mazari Sharif

    Today, 20 April, Friday

    Time Temperature Precipitation Wind Pressure Humidity
    00:00 +7°C° 0 mm 1 mps 654 mmHg 68%
    01:00 +6°C° 0 mm 1 mps 654 mmHg 69%
    02:00 +6°C° 0 mm 1 mps 654 mmHg 71%
    03:00 +6°C° 0 mm 1 mps 654 mmHg 72%
    04:00 +5°C° 0 mm 1 mps 653 mmHg 74%
    05:00 +6°C° 0 mm 1 mps 653 mmHg 70%
    06:00 +7°C° 0 mm 1 mps 654 mmHg 66%
    07:00 +7°C° 0 mm 1 mps 654 mmHg 62%
    08:00 +8°C° 0 mm 2 mps 654 mmHg 56%
    09:00 +9°C° 0 mm 2 mps 654 mmHg 51%
    10:00 +10°C° 0 mm 2 mps 653 mmHg 46%
    11:00 +11°C° 0 mm 3 mps 653 mmHg 43%
    12:00 +12°C° 0 mm 3 mps 653 mmHg 41%
    13:00 +13°C° 0 mm 3 mps 653 mmHg 38%
    14:00 +13°C° 0 mm 3 mps 653 mmHg 37%
    15:00 +14°C° 0 mm 3 mps 653 mmHg 37%
    16:00 +14°C° 0 mm 3 mps 653 mmHg 36%
    17:00 +13°C° 0 mm 3 mps 653 mmHg 40%
    18:00 +13°C° 0 mm 2 mps 653 mmHg 44%
    19:00 +12°C° 0 mm 2 mps 653 mmHg 48%
    20:00 +12°C° 0 mm 2 mps 653 mmHg 50%
    21:00 +12°C° 0 mm 2 mps 653 mmHg 52%
    22:00 +10°C° 0 mm 2 mps 653 mmHg 53%
    23:00 +10°C° 0 mm 2 mps 652 mmHg 54%

    Tomorrow, 21 April, Saturday

    Time Temperature Precipitation Wind Pressure Humidity
    00:00 +9°C° 0 mm 2 mps 652 mmHg 55%
    01:00 +9°C° 0 mm 2 mps 652 mmHg 56%
    02:00 +9°C° 0 mm 2 mps 652 mmHg 56%
    03:00 +8°C° 0 mm 2 mps 652 mmHg 56%
    04:00 +8°C° 0 mm 2 mps 652 mmHg 56%
    05:00 +9°C° 0 mm 2 mps 652 mmHg 51%
    06:00 +12°C° 0 mm 2 mps 653 mmHg 45%
    07:00 +13°C° 0 mm 2 mps 654 mmHg 40%
    08:00 +15°C° 0 mm 2 mps 654 mmHg 35%
    09:00 +16°C° 0 mm 3 mps 655 mmHg 30%
    10:00 +18°C° 0 mm 3 mps 655 mmHg 25%
    11:00 +19°C° 0 mm 3 mps 655 mmHg 23%
    12:00 +20°C° 0 mm 3 mps 655 mmHg 22%
    13:00 +21°C° 0 mm 4 mps 655 mmHg 20%
    14:00 +21°C° 0 mm 4 mps 655 mmHg 20%
    15:00 +21°C° 0 mm 4 mps 655 mmHg 21%
    16:00 +21°C° 0 mm 4 mps 654 mmHg 21%
    17:00 +20°C° 0 mm 3 mps 654 mmHg 25%
    18:00 +18°C° 0 mm 3 mps 654 mmHg 30%
    19:00 +17°C° 0 mm 2 mps 654 mmHg 34%
    20:00 +16°C° 0 mm 2 mps 654 mmHg 34%
    21:00 +16°C° 0 mm 2 mps 654 mmHg 35%
    22:00 +15°C° 0 mm 2 mps 654 mmHg 36%
    23:00 +15°C° 0 mm 2 mps 654 mmHg 35%

    Day after tomorrow, 22 April, Sunday

    Time Temperature Precipitation Wind Pressure Humidity
    00:00 +15°C° 0 mm 2 mps 654 mmHg 34%
    01:00 +15°C° 0 mm 2 mps 654 mmHg 33%
    02:00 +14°C° 0 mm 2 mps 654 mmHg 32%
    03:00 +14°C° 0 mm 2 mps 654 mmHg 31%
    04:00 +13°C° 0 mm 3 mps 654 mmHg 30%
    05:00 +14°C° 0 mm 3 mps 655 mmHg 28%
    06:00 +17°C° 0 mm 3 mps 655 mmHg 27%
    07:00 +18°C° 0 mm 3 mps 656 mmHg 25%
    08:00 +20°C° 0 mm 3 mps 656 mmHg 22%
    09:00 +21°C° 0 mm 2 mps 657 mmHg 19%
    10:00 +24°C° 0 mm 2 mps 657 mmHg 16%
    11:00 +25°C° 0 mm 3 mps 657 mmHg 16%
    12:00 +25°C° 0 mm 3 mps 657 mmHg 16%
    13:00 +26°C° 0 mm 3 mps 657 mmHg 15%
    14:00 +26°C° 0 mm 3 mps 657 mmHg 16%
    15:00 +25°C° 0 mm 3 mps 656 mmHg 17%
    16:00 +25°C° 0 mm 3 mps 656 mmHg 18%
    17:00 +24°C° 0 mm 3 mps 656 mmHg 21%
    18:00 +22°C° 0 mm 3 mps 656 mmHg 23%
    19:00 +21°C° 0 mm 3 mps 656 mmHg 25%
    20:00 +20°C° 0 mm 3 mps 656 mmHg 26%
    21:00 +20°C° 0 mm 3 mps 656 mmHg 27%
    22:00 +19°C° 0 mm 3 mps 657 mmHg 27%
    23:00 +19°C° 0 mm 3 mps 656 mmHg 28%

    23 April, Monday

    Time Temperature Precipitation Wind Pressure Humidity
    00:00 +18°C° 0 mm 3 mps 656 mmHg 28%
    01:00 +18°C° 0 mm 3 mps 656 mmHg 28%
    02:00 +17°C° 0 mm 3 mps 656 mmHg 29%
    03:00 +17°C° 0 mm 3 mps 656 mmHg 30%
    04:00 +17°C° 0 mm 3 mps 656 mmHg 30%
    05:00 +18°C° 0 mm 3 mps 656 mmHg 29%
    06:00 +19°C° 0 mm 3 mps 657 mmHg 28%
    07:00 +20°C° 0 mm 3 mps 658 mmHg 26%
    08:00 +22°C° 0 mm 3 mps 658 mmHg 23%
    09:00 +25°C° 0 mm 3 mps 658 mmHg 20%
    10:00 +26°C° 0 mm 2 mps 659 mmHg 17%
    11:00 +27°C° 0 mm 3 mps 658 mmHg 16%
    12:00 +28°C° 0 mm 3 mps 658 mmHg 15%
    13:00 +29°C° 0 mm 4 mps 658 mmHg 15%
    14:00 +29°C° 0 mm 4 mps 657 mmHg 15%
    15:00 +29°C° 0 mm 4 mps 657 mmHg 16%
    16:00 +29°C° 0 mm 5 mps 657 mmHg 16%
    17:00 +27°C° 0 mm 4 mps 656 mmHg 19%
    18:00 +26°C° 0 mm 3 mps 656 mmHg 23%
    19:00 +24°C° 0 mm 3 mps 656 mmHg 26%
    20:00 +22°C° 0 mm 3 mps 656 mmHg 27%
    21:00 +22°C° 0 mm 3 mps 656 mmHg 27%
    22:00 +21°C° 0 mm 3 mps 656 mmHg 28%
    23:00 +21°C° 0 mm 3 mps 655 mmHg 28%

    24 April, Tuesday

    Time Temperature Precipitation Wind Pressure Humidity
    00:00 +21°C° 0 mm 3 mps 655 mmHg 28%
    01:00 +20°C° 0 mm 3 mps 655 mmHg 27%
    02:00 +20°C° 0 mm 3 mps 654 mmHg 27%
    03:00 +19°C° 0 mm 3 mps 654 mmHg 27%
    04:00 +19°C° 0 mm 3 mps 654 mmHg 27%
    05:00 +20°C° 0 mm 3 mps 654 mmHg 26%
    06:00 +21°C° 0 mm 3 mps 655 mmHg 26%
    07:00 +24°C° 0 mm 3 mps 655 mmHg 25%
    08:00 +26°C° 0 mm 3 mps 656 mmHg 21%
    09:00 +27°C° 0 mm 3 mps 656 mmHg 18%
    10:00 +29°C° 0 mm 2 mps 656 mmHg 15%
    11:00 +30°C° 0 mm 2 mps 656 mmHg 14%
    12:00 +30°C° 0 mm 3 mps 656 mmHg 14%
    13:00 +31°C° 0 mm 3 mps 655 mmHg 14%
    14:00 +30°C° 0 mm 3 mps 655 mmHg 15%
    15:00 +30°C° 0 mm 3 mps 655 mmHg 15%
    16:00 +30°C° 0 mm 3 mps 655 mmHg 16%
    17:00 +27°C° 0.1 mm 4 mps 655 mmHg 24%
    18:00 +25°C° 0.1 mm 5 mps 655 mmHg 33%
    19:00 +21°C° 0.1 mm 6 mps 655 mmHg 42%
    20:00 +20°C° 0.1 mm 7 mps 655 mmHg 50%
    21:00 +17°C° 0.1 mm 7 mps 656 mmHg 58%
    22:00 +16°C° 0.1 mm 8 mps 656 mmHg 66%
    23:00 +15°C° 0.5 mm 7 mps 656 mmHg 71%

    25 April, Wednesday

    Time Temperature Precipitation Wind Pressure Humidity
    00:00 +14°C° 0.5 mm 6 mps 656 mmHg 75%
    01:00 +14°C° 0.5 mm 5 mps 656 mmHg 80%
    02:00 +14°C° 0.8 mm 5 mps 657 mmHg 80%
    03:00 +14°C° 0.8 mm 4 mps 657 mmHg 80%
    04:00 +13°C° 0.8 mm 4 mps 658 mmHg 80%
    05:00 +13°C° 0.5 mm 4 mps 658 mmHg 79%
    06:00 +13°C° 0.5 mm 4 mps 659 mmHg 78%
    07:00 +13°C° 0.5 mm 3 mps 659 mmHg 77%
    08:00 +14°C° 0.1 mm 4 mps 659 mmHg 73%
    09:00 +14°C° 0.1 mm 4 mps 660 mmHg 69%
    10:00 +15°C° 0.1 mm 4 mps 660 mmHg 66%
    11:00 +17°C° 0 mm 4 mps 660 mmHg 62%
    12:00 +18°C° 0 mm 4 mps 660 mmHg 58%
    13:00 +18°C° 0 mm 4 mps 659 mmHg 54%
    14:00 +18°C° 0 mm 4 mps 659 mmHg 54%
    15:00 +19°C° 0 mm 4 mps 659 mmHg 53%
    16:00 +19°C° 0 mm 4 mps 659 mmHg 52%
    17:00 +18°C° 0 mm 3 mps 659 mmHg 54%
    18:00 +17°C° 0 mm 3 mps 659 mmHg 56%
    19:00 +17°C° 0 mm 2 mps 659 mmHg 58%
    20:00 +16°C° 0 mm 2 mps 659 mmHg 60%
    21:00 +16°C° 0 mm 1 mps 659 mmHg 62%
    22:00 +15°C° 0 mm 1 mps 659 mmHg 65%
    23:00 +15°C° 0 mm 1 mps 658 mmHg 66%
    Show more